Location: Brno
(49.2000°N, 16.6330°E)
Time: 05:42:20
(UTC+02:00)

RESURS DK-1 - Visible Passes

Search period start: 19 August 2017 00:00
Search period end: 29 August 2017 00:00
Orbit: 555 x 565 km, 69.9° (Epoch: 18 August)

Date Brightness Start Highest point End Pass type
(mag) Time Alt. Az. Time Alt. Az. Time Alt. Az.
19 Aug 3.9 01:29:33 31° NW 01:29:33 31° NW 01:33:04 10° NNE visible
19 Aug 4.3 23:52:04 22° NE 23:52:04 22° NE 23:53:43 10° NE visible
20 Aug 4.2 01:27:57 26° NW 01:27:58 26° NW 01:31:31 10° N visible
20 Aug 4.1 23:50:26 26° NE 23:50:26 26° NE 23:52:23 10° NE visible
21 Aug 4.4 01:26:20 21° NW 01:26:41 21° NW 01:29:56 10° N visible
21 Aug 3.9 23:48:47 31° NE 23:48:47 31° NE 23:51:01 10° NNE visible
22 Aug 4.7 01:24:40 17° NW 01:25:25 18° NW 01:28:19 10° N visible
22 Aug 3.7 23:47:02 36° NNE 23:47:02 36° NNE 23:49:38 10° NNE visible
23 Aug 5.0 01:22:56 13° WNW 01:24:10 15° NW 01:26:37 10° N visible
23 Aug 3.5 23:45:16 41° N 23:45:16 41° N 23:48:11 10° NNE visible
24 Aug 5.2 01:21:09 10° WNW 01:22:57 13° NW 01:24:49 10° N visible
24 Aug 4.7 22:07:32 12° ENE 22:07:32 12° ENE 22:08:02 10° ENE visible
24 Aug 3.5 23:43:24 43° NNW 23:43:24 43° NNW 23:46:43 10° NNE visible
25 Aug 5.4 01:20:48 10° NW 01:21:45 11° NNW 01:22:41 10° NNW visible
25 Aug 4.3 22:05:34 17° ENE 22:05:34 17° ENE 22:06:54 10° NE visible
25 Aug 3.7 23:41:26 38° NW 23:41:26 38° NW 23:45:14 10° NNE visible
26 Aug 3.7 22:03:26 26° ENE 22:03:26 26° ENE 22:05:41 10° NE visible
26 Aug 4.1 23:39:18 29° WNW 23:39:58 31° NW 23:43:42 10° NNE visible
27 Aug 2.9 22:01:04 41° E 22:01:04 41° E 22:04:24 10° NE visible
27 Aug 4.5 23:36:54 19° W 23:38:39 25° NW 23:42:09 10° N visible
28 Aug 2.3 21:58:12 51° SSE 21:58:56 61° ESE 22:03:03 10° NE visible
28 Aug 4.9 23:34:11 10° W 23:37:22 21° NW 23:40:34 10° N visible
